Location: New Town
(33.2710°N, 90.7534°W)
Time: 20:24:21
(UTC+00:00)

Envisat - Pass Details

Date: 25 April 2021
Orbit: 764 x 766 km, 98.1° (Epoch: 06 May)

Event Time Altitude Azimuth Distance (km) Brightness Sun altitude
Rises 10:32:39 0° 30° (NNE) 3,232 7.2 -10.3°
Reaches altitude 10° 10:35:29 10° 45° (NE) 2,302 6.7 -9.8°
Maximum altitude 10:39:19 22° 95° (E) 1,644 5.6 -9.0°
Drops below altitude 10° 10:43:08 10° 144° (SE) 2,292 5.7 -8.3°
Sets 10:45:56 0° 160° (SSE) 3,213 6.2 -7.8°
